Погода в Рассказово

Россия / Тамбовская область     52°39′13″N   41°52′27″E
темп.,
°C
ветер,
м/с
пор.,
м/с
влажн.,
%
обл.,
%
осадки,
мм/ч
давл.,
гПа
погр.,
м
9 марта, вт
вт900:00−11з12900 0.0 100921
03:00−12зсз22920 0.0 101032
06:00−13сз22950 0.0 101138
09:00−11с258939 0.1 1012279
12:00−8сз3478100 0.0 1013629
15:00−9сз468198 0.1 1014679
18:00−12сз4891100 0.0 1015482
21:00−14сз499299 0.1 1018359
10 марта, ср
ср1000:00−14сз379394 0.1 1019349
03:00−17сз489290 0.1 1021358
06:00−19сз499471 0.0 1022337
09:00−19сз488985 0.0 1024374
12:00−16сз478099 0.0 1025556
15:00−15сз578098 0.0 1026600
18:00−18сз4889100 0.0 1027470
21:00−19ссз3794100 0.0 1030357
11 марта, чт
чт1100:00−20ссз369553 0.0 1031217
03:00−21ссз249428 0.0 1032145
06:00−21зсз24910 0.0 1032133
09:00−19сз36850 0.0 1034274
12:00−14ссз357732 0.0 1033503
15:00−12сз237355 0.0 1033619
18:00−16сз359191 0.0 1033180
21:00−18сз229549 0.0 103466
12 марта, пт
пт1200:00−18ссз12950 0.0 103522
03:00−18з12950 0.0 103522
06:00−19зсз11950 0.0 103520
09:00−14юз01760 0.0 1036194
12:00−9ююз12630 0.0 1036442
15:00−9ю23680 0.0 1035428
18:00−13ююз23860 0.0 103494
21:00−15ю36850 0.0 1035132
13 марта, сб
сб1300:00−16ю38890 0.0 1035194
03:00−16ю49860 0.0 1034217
06:00−16ю410870 0.0 1033238
09:00−12ю5117740 0.0 1033364
12:00−7ю61267100 0.0 1031730
15:00−5ююз61269100 0.0 1029895
18:00−6ююз51270100 0.0 1028881
21:00−7ю5137097 0.0 1028485